Location: Bannatyne
(13.0833°N, 59.5333°W)
Time: 15:16:56
(UTC+00:00)

Ariane Rocket - Pass Details

Date: 18 October 2019
Orbit: 760 x 770 km, 98.8° (Epoch: 13 November)

Event Time Altitude Azimuth Distance (km) Brightness Sun altitude
Exits shadow 22:46:46 22° 44° (NE) 1,640 4.3 -17.5°
Drops below altitude 10° 22:49:15 10° 19° (NNE) 2,304 5.2 -18.1°
Sets 22:51:52 0° 7° (N) 3,232 6.1 -18.8°
